• Join FlightAware (Why Join?)
  • Login
  • US Flag 
12:41PM EST


 

Airport Tracker/Info


-or-


 

Live Flight TrackerFlight Track Log ✈ DAL2191 ✈ 01-Dec-2013 ✈ KATL - KTPA

Flight Track Log - Related Links

Times and Time Zones

All times are in EST time to prevent confusion due to time zone crossing. See the DAL2191 flight status page for this flight to view local times or setup timezone preferences in your user account.

Time Position Orientation Groundspeed Altitude Reporting Facility
EST Latitude Longitude Course Direction KTS MPH feet Rate Location/Type
12:59PM 33.6347 -84.4953 192° South 469 540 2,900  Level Atlanta Center
01:00PM 33.6303 -84.5828 267° West 349 402 5,600 2,950 Climbing Atlanta Center
01:01PM 33.5550 -84.5972 189° South 274 315 8,800 2,200 Climbing Atlanta Center
01:02PM 33.1561 -84.2575 199° South  Level Estimated
01:02PM 33.4758 -84.5742 166° South 292 336 10,000  Level Atlanta Center
01:03PM 33.0359 -84.2152 179° South  Level Estimated
01:03PM 33.3758 -84.5464 167° South 335 386 11,300  Level Atlanta Center
01:04PM 32.9133 -84.2462 192° South  Level FlightAware Approximate
01:04PM 33.2714 -84.5208 168° South 373 429 14,000  Level Atlanta Center
01:05PM 32.7908 -84.2771 192° South  Level FlightAware Approximate
01:05PM 33.1608 -84.5253 182° South 392 451 16,500  Level Atlanta Center
01:06PM 33.0481 -84.5244 180° South 397 457 18,700 2,050 Climbing Atlanta Center
01:07PM 32.9292 -84.5164 177° South 410 472 20,600 1,950 Climbing Atlanta Center
01:08PM 32.8061 -84.5083 177° South 442 509 22,600 1,700 Climbing Atlanta Center
01:09PM 32.6914 -84.5003 177° South 442 509 24,000 1,350 Climbing Atlanta Center
01:10PM 32.5639 -84.4922 177° South 452 520 25,300 1,200 Climbing Atlanta Center
01:11PM 32.4283 -84.4867 178° South 473 544 26,400 950 Climbing Atlanta Center
01:12PM 32.2947 -84.4761 176° South 483 556 27,200 1,024 Climbing Atlanta Center
01:14PM 32.0336 -84.4611 177° South 517 595 29,300 1,271 Climbing Jacksonville Center
01:15PM 31.8939 -84.4539 177° South 517 595 30,800 850 Climbing Jacksonville Center
01:16PM 31.7542 -84.4442 177° South 512 589 31,000 100 Climbing Jacksonville Center
01:17PM 31.6100 -84.4367 177° South 517 595 31,000  Level Jacksonville Center
01:18PM 31.4708 -84.3981 167° South 517 595 31,000  Level Jacksonville Center
01:19PM 31.3167 -84.3492 165° South 517 595 31,000  Level Jacksonville Center
01:20PM 31.1772 -84.3083 166° South 524 603 31,000  Level Jacksonville Center
01:21PM 31.0381 -84.2625 164° South 524 603 31,000  Level Jacksonville Center
01:22PM 30.8986 -84.2217 166° South 524 603 31,000  Level Jacksonville Center
01:23PM 30.7589 -84.1786 165° South 524 603 31,000  Level Jacksonville Center
01:24PM 30.6194 -84.1358 165° South 524 603 31,000  Level Jacksonville Center
01:25PM 30.4947 -84.1003 166° South 524 603 31,000  Level Jacksonville Center
01:26PM 30.3553 -84.0578 165° South 524 603 31,000  Level Jacksonville Center
01:27PM 30.2136 -84.0128 165° South 524 603 31,000 -50 Level Jacksonville Center
01:28PM 30.0719 -83.9894 172° South 524 603 30,900  Descending Jacksonville Center
01:29PM 29.9483 -84.0336 197° South 482 555 31,000 50 Climbing Jacksonville Center
01:30PM 29.8350 -84.0969 206° Southwest 462 532 31,000 -50 Level Jacksonville Center
01:31PM 29.7011 -84.1072 184° South 462 532 30,900 -150 Descending Jacksonville Center
01:32PM 29.5875 -83.9961 140° Southeast 462 532 30,700 -600 Descending Jacksonville Center
01:33PM 29.4842 -83.8589 131° Southeast 499 574 29,700 -1,000 Descending Jacksonville Center
01:34PM 29.3850 -83.7267 131° Southeast 524 603 28,700 -1,000 Descending Jacksonville Center
01:35PM 29.2856 -83.5972 131° Southeast 534 615 27,700 -1,000 Descending Jacksonville Center
01:36PM 29.1794 -83.4847 137° Southeast 534 615 26,700 -1,000 Descending Jacksonville Center
01:37PM 29.0547 -83.4056 151° Southeast 510 587 25,700 -1,050 Descending Jacksonville Center
01:38PM 28.9339 -83.3267 150° Southeast 510 587 24,600 -900 Descending Jacksonville Center
01:39PM 28.8131 -83.2906 165° South 469 540 23,900 -750 Descending Jacksonville Center
01:40PM 28.7022 -83.3139 190° South 436 502 23,100 -1,925 Descending Jacksonville Center
01:42PM 28.5167 -83.2500 163° South 415 478 18,800 -2,528 Descending Tampa TRACON
01:43PM 28.4667 -83.1333 116° Southeast 404 465 16,400 -2,250 Descending Tampa TRACON
01:44PM 28.4333 -83.0333 111° Southeast 383 441 14,300 -2,000 Descending Tampa TRACON
01:45PM 28.3500 -82.9667 145° Southeast 346 398 12,400 -1,650 Descending Tampa TRACON
01:46PM 28.2667 -82.9167 152° Southeast 337 388 11,000 -1,095 Descending Tampa TRACON
01:47PM 28.2000 -82.8500 139° Southeast 288 331 10,100 -1,050 Descending Tampa TRACON
01:48PM 28.1500 -82.7833 130° Southeast 289 333 8,900 -1,368 Descending Tampa TRACON
01:49PM 28.1000 -82.7167 130° Southeast 280 322 7,500 -1,300 Descending Tampa TRACON
01:50PM 28.0500 -82.6667 139° Southeast 267 307 6,300 -1,150 Descending Tampa TRACON
01:51PM 27.9833 -82.6167 146° Southeast 265 305 5,200 -992 Descending Tampa TRACON
01:52PM 27.9167 -82.6167 180° South 229 264 4,300 -595 Descending Tampa TRACON
01:53PM 27.8500 -82.6167 180° South 233 268 4,000 -333 Descending Tampa TRACON
01:54PM 27.7833 -82.6167 180° South 231 266 3,600 -550 Descending Tampa TRACON
01:55PM 27.7833 -82.5500 90° East 183 211 2,900 -579 Descending Tampa TRACON
01:56PM 27.8333 -82.5500 360° North 177 204 2,500 -650 Descending Tampa TRACON
01:57PM 27.8833 -82.5500 360° North 164 189 1,600 -810 Descending Tampa TRACON
01:58PM 27.9333 -82.5500 360° North 152 175 800 -727 Descending Tampa TRACON